EW2359 Weather Reports


time (UTC)temp
C
wind
direction
speed
KPH
gust
KPH
rain 1hr
cm
rain 24hr
cm
rain mn
cm
humidity
%
barometer
mb
20260503213544 17 150 3.2 17.7 0.00 0.00 0.00 46 1011.4
20260503212544 17 258 6.4 16.1 0.00 0.00 0.00 46 1011.7
20260503212044 17 161 9.7 16.1 0.00 0.00 0.00 45 1011.9
20260503211544 17 206 6.4 14.5 0.00 0.00 0.00 46 1011.9
20260503211044 17 142 4.8 14.5 0.00 0.00 0.00 46 1012.0
20260503210543 17 176 9.7 14.5 0.00 0.00 0.00 46 1012.3
20260503210043 17 214 4.8 24.1 0.00 0.00 0.00 46 1012.4
20260503205543 17 218 12.9 24.1 0.00 0.00 0.00 46 1012.6
20260503205043 17 268 12.9 19.3 0.00 0.00 0.00 46 1012.7
20260503204544 17 244 6.4 27.4 0.00 0.00 0.00 46 1012.7
20260503204043 17 251 11.3 27.4 0.00 0.00 0.00 46 1012.8
20260503203043 17 249 4.8 14.5 0.00 0.00 0.00 45 1013.2
20260503202543 17 251 8.0 14.5 0.00 0.00 0.00 44 1013.4
20260503202043 17 207 4.8 22.5 0.00 0.00 0.00 46 1013.5
20260503201543 17 268 3.2 22.5 0.00 0.00 0.00 44 1013.7
20260503201043 17 233 6.4 14.5 0.00 0.00 0.00 44 1013.7
20260503200543 17 222 3.2 19.3 0.00 0.00 0.00 44 1013.9
20260503200043 17 215 6.4 19.3 0.00 0.00 0.00 46 1014.0
20260503195543 17 251 4.8 19.3 0.00 0.00 0.00 44 1014.2
20260503195043 17 211 12.9 16.1 0.00 0.00 0.00 46 1014.2
20260503194543 17 238 8.0 16.1 0.00 0.00 0.00 44 1014.4
20260503194043 16 268 1.6 16.1 0.00 0.00 0.00 45 1014.5
20260503193543 16 194 8.0 25.7 0.00 0.00 0.00 45 1014.8
20260503192543 17 214 12.9 22.5 0.00 0.00 0.00 43 1014.7
20260503192043 17 253 12.9 14.5 0.00 0.00 0.00 43 1014.6
20260503191543 17 138 1.6 14.5 0.00 0.00 0.00 42 1014.5
20260503191043 17 196 4.8 16.1 0.00 0.00 0.00 43 1014.4
20260503190543 17 203 4.8 16.1 0.00 0.00 0.00 42 1014.5
20260503185043 17 214 3.2 16.1 0.00 0.00 0.00 44 1014.8
20260503184543 17 214 9.7 16.1 0.00 0.00 0.00 43 1014.7
20260503184043 16 256 8.0 17.7 0.00 0.00 0.00 47 1015.0
20260503183543 16 156 6.4 22.5 0.00 0.00 0.00 44 1015.1
20260503183043 16 195 3.2 22.5 0.00 0.00 0.00 44 1015.1
20260503182543 16 249 20.9 20.9 0.00 0.00 0.00 46 1015.3
20260503182043 16 146 1.6 16.1 0.00 0.00 0.00 46 1015.5
20260503181043 16 198 9.7 19.3 0.00 0.00 0.00 43 1015.7
20260503180543 16 216 9.7 16.1 0.00 0.00 0.00 42 1015.9
20260503180042 16 317 0.0 16.1 0.00 0.00 0.00 43 1016.0
20260503175542 16 225 8.0 12.9 0.00 0.00 0.00 44 1016.1
20260503175042 16 201 3.2 22.5 0.00 0.00 0.00 43 1016.2
20260503174542 16 216 9.7 22.5 0.00 0.00 0.00 42 1016.3
20260503174042 16 260 9.7 17.7 0.00 0.00 0.00 42 1016.3
20260503173542 15 229 4.8 17.7 0.00 0.00 0.00 43 1016.4
20260503172542 16 176 4.8 12.9 0.00 0.00 0.00 43 1016.6
20260503172042 16 206 6.4 12.9 0.00 0.00 0.00 44 1016.7
20260503171542 15 262 4.8 11.3 0.00 0.00 0.00 44 1016.6
20260503171042 15 246 3.2 16.1 0.00 0.00 0.00 42 1016.8
20260503170542 15 270 4.8 16.1 0.00 0.00 0.00 41 1016.8
20260503150541 13 201 4.8 17.7 0.00 0.00 0.00 50 1018.2
20260503130540 8 228 11.3 14.5 0.00 0.00 0.00 62 1018.7
20260503110539 3 226 0.0 0.0 0.00 0.00 0.00 78 1017.9
20260503081537 3 264 0.0 0.0 0.00 0.00 0.00 77 1017.7
20260503081038 3 264 0.0 0.0 0.00 0.00 0.00 77 1017.6
20260503080538 3 264 0.0 1.6 0.00 0.00 0.00 77 1017.7
20260503072537 3 264 0.0 0.0 0.00 0.00 0.00 79 1017.6
20260503072037 3 264 0.0 0.0 0.00 0.00 0.00 79 1017.7
20260503071537 3 264 0.0 1.6 0.00 0.00 0.00 79 1017.7
20260503071037 3 264 0.0 3.2 0.00 0.00 0.00 79 1017.6
20260503070537 3 264 0.0 3.2 0.00 0.00 0.00 80 1017.7
20260503055037 4 291 0.0 0.0 0.00 0.00 0.00 77 1018.2
20260503054537 4 291 0.0 0.0 0.00 0.00 0.00 77 1018.2
20260503054036 4 291 0.0 0.0 0.00 0.00 0.00 78 1018.3
20260503053536 4 291 0.0 0.0 0.00 0.00 0.00 78 1018.3
20260503053036 4 291 0.0 0.0 0.00 0.00 0.00 78 1018.4
20260503052036 4 291 0.0 0.0 0.00 0.00 0.00 78 1018.3
20260503051536 4 291 0.0 0.0 0.00 0.00 0.00 78 1018.3
20260503051036 4 291 0.0 0.0 0.00 0.00 0.00 79 1018.3
20260503050536 4 291 0.0 0.0 0.00 0.00 0.00 79 1018.4
20260503050036 4 291 0.0 0.0 0.00 0.00 0.00 79 1018.4
20260503045536 4 291 0.0 0.0 0.00 0.00 0.00 79 1018.3
20260503045036 4 291 0.0 0.0 0.00 0.00 0.00 79 1018.3
20260503043536 4 291 0.0 0.0 0.00 0.00 0.00 79 1018.4
20260503043036 4 291 0.0 0.0 0.00 0.00 0.00 79 1018.3
20260503042535 5 291 0.0 0.0 0.00 0.00 0.00 79 1018.3
20260503042036 4 291 0.0 0.0 0.00 0.00 0.00 78 1018.3
20260503041035 5 291 0.0 0.0 0.00 0.00 0.00 78 1018.2
20260503040536 5 291 0.0 0.0 0.00 0.00 0.00 77 1018.2
20260503040036 5 291 0.0 0.0 0.00 0.00 0.00 76 1018.3
20260503035535 5 291 0.0 0.0 0.00 0.00 0.00 76 1018.2
20260503035035 5 291 0.0 0.0 0.00 0.00 0.00 75 1018.2
20260503034035 5 291 0.0 0.0 0.00 0.00 0.00 75 1018.3
20260503033535 5 291 0.0 0.0 0.00 0.00 0.00 75 1018.3
20260503033035 5 291 0.0 0.0 0.00 0.00 0.00 74 1018.4
20260503031035 5 291 0.0 0.0 0.00 0.00 0.00 71 1018.4
20260503030535 5 291 0.0 0.0 0.00 0.00 0.00 71 1018.4
20260503030035 5 291 0.0 0.0 0.00 0.00 0.00 70 1018.4
20260503025535 6 291 0.0 0.0 0.00 0.00 0.00 68 1018.4
20260503025035 6 291 0.0 0.0 0.00 0.00 0.00 68 1018.4
20260503024534 6 291 0.0 0.0 0.00 0.00 0.00 66 1018.3
20260503023534 6 291 0.0 0.0 0.00 0.00 0.00 66 1018.3
20260503023034 6 291 0.0 0.0 0.00 0.00 0.00 66 1018.2
20260503022534 6 291 0.0 0.0 0.00 0.00 0.00 65 1018.1
20260503022034 7 291 0.0 0.0 0.00 0.00 0.00 64 1018.2
20260503021534 7 291 0.0 0.0 0.00 0.00 0.00 61 1018.1
20260503021034 7 291 0.0 0.0 0.00 0.00 0.00 62 1018.1
20260503020534 7 291 0.0 0.0 0.00 0.00 0.00 62 1018.1
20260503020034 7 291 0.0 0.0 0.00 0.00 0.00 61 1018.0
20260503015535 7 291 0.0 0.0 0.00 0.00 0.00 58 1018.0
20260503015035 7 291 0.0 0.0 0.00 0.00 0.00 56 1017.8
20260503014534 7 291 0.0 0.0 0.00 0.00 0.00 55 1017.7
20260503014034 8 291 0.0 0.0 0.00 0.00 0.00 54 1017.7
20260503013534 8 291 0.0 0.0 0.00 0.00 0.00 54 1017.7
20260503013034 8 291 0.0 0.0 0.00 0.00 0.00 53 1017.7
20260503012533 8 291 0.0 1.6 0.00 0.00 0.00 50 1017.7
20260503012034 8 291 0.0 1.6 0.00 0.00 0.00 51 1017.7
20260503011534 9 291 0.0 0.0 0.00 0.00 0.00 52 1017.6
20260503011034 9 290 0.0 0.0 0.00 0.00 0.00 49 1017.6
20260503010534 9 290 0.0 0.0 0.00 0.00 0.00 47 1017.6
20260503010034 10 290 0.0 0.0 0.00 0.00 0.00 46 1017.7
20260503005533 10 290 0.0 0.0 0.00 0.00 0.00 45 1017.5
20260503005034 10 290 0.0 0.0 0.00 0.00 0.00 46 1017.5
20260503004533 10 290 0.0 0.0 0.00 0.00 0.00 45 1017.6
20260503003533 10 290 0.0 3.2 0.00 0.00 0.00 43 1017.6
20260503003033 10 290 0.0 3.2 0.00 0.00 0.00 43 1017.5
20260503002033 11 349 1.6 4.8 0.00 0.00 0.00 42 1017.4
20260503001033 11 351 1.6 4.8 0.00 0.00 0.00 41 1017.3
20260503000534 11 349 0.0 8.0 0.00 0.00 0.00 40 1017.3
20260503000033 11 349 1.6 8.0 0.00 0.00 0.00 38 1017.2
20260502235033 11 347 1.6 4.8 0.00 0.00 0.00 40 1017.1
20260502234533 11 326 1.6 4.8 0.00 0.00 0.00 40 1017.1
20260502234034 11 351 3.2 3.2 0.00 0.00 0.00 41 1017.1
20260502233534 11 234 0.0 8.0 0.00 0.00 0.00 40 1017.0
20260502233033 11 339 3.2 8.0 0.00 0.00 0.00 39 1017.0
20260502232533 11 28 6.4 9.7 0.00 0.00 0.00 38 1017.0
20260502231533 11 317 0.0 11.3 0.00 0.00 0.00 39 1017.1
20260502230533 11 344 3.2 16.1 0.00 0.00 0.00 38 1017.1
20260502230034 11 341 8.0 9.7 0.00 0.00 0.00 39 1017.2
20260502225033 12 337 3.2 12.9 0.00 0.00 0.00 37 1017.2
20260502224533 12 356 9.7 9.7 0.00 0.00 0.00 39 1017.1
20260502224033 12 356 3.2 6.4 0.00 0.00 0.00 39 1017.1
20260502223533 12 1 3.2 6.4 0.00 0.00 0.00 39 1017.2
20260502223033 12 338 0.0 8.0 0.00 0.00 0.00 39 1017.2
20260502221533 12 351 1.6 6.4 0.00 0.00 0.00 37 1017.0
20260502221033 12 318 3.2 6.4 0.00 0.00 0.00 38 1017.1
20260502220533 12 337 3.2 8.0 0.00 0.00 0.00 38 1017.1
20260502220033 12 339 3.2 8.0 0.00 0.00 0.00 39 1017.1
20260502215532 12 324 3.2 8.0 0.00 0.00 0.00 39 1017.1
20260502214032 12 6 14.5 14.5 0.00 0.00 0.00 38 1017.0